SCP
0 0 0 0 0 0 0 0 0 0 0 0 0 0 0 0 0 0 0 0 0 0 0 0 0 0 0 0 0 0 0 0 0 0 0 0 0 0
0 0 0 0 0 0 0 0 0 0 0 0 0 0 0 0 0 0 0 0 0 0 0 0 0 0 0 0 0 0 0 0 0 0 0 0 0 0
0 0 0 0 0 0 0 0 0 0 0 0 0 0 0 0 0 0 0 -0 -0 0 0 0 0 0 0 0 0 0 0 0 0 0 0 0 0 0
0 0 0 0 0 0 0 0 0 0 0 0 0 0 0 0 0 0 0 0 -0 -0 0 0 0 0 0 0 0 0 0 0 0 0 0 0 0 0
0 0 0 0 0 0 0 0 0 0 0 0 0 0 0 0 0 0 0 0 0 0 0 0 0 0 0 0 0 0 0 0 0 0 0 0 0 0
0 0 0 0 0 0 0 0 0 0 0 0 0 0 0 0 0 0 0 0 0 0 0 0 0 0 0 0 0 0 0 0 0 0 0 0 0 0
0 0 0 0 0 0 0 0 0 0 0 0 0 0 0 0 0 0 0 0 0 0 0 0 0 0 0 0 0 0 0 0 0 0 0 0 0 0
0 0 0 0 0 0 0 0 0 0 0 0 0 0 0 0 0 0 0 0 0 0 0 0 0 0 0 0 0 0 0 0 0 0 0 0 0 0
0 0 0 0 0 0 0 0 0 0 0 0 0 0 0 -0 0 0 0 -0 -0 0 0 0 0 0 0 0 0 -0 0 -0 0 0 0 0 0 0
0 0 0 0 0 0 0 0 0 0 0 0 0 0 0 -0 -0 -0 -0 -0 -0 0 0 0 0 0 0 0 -0 -0 -0 0 0 0 0 0 0 0
0 0 0 0 0 0 0 0 0 0 0 0 0 0 0 0 0 -0 0 0 0 0 0 0 0 0 0 0 0 0 0 0 -0 -0 0 0 0 0
0 0 0 0 0 0 0 0 0 0 0 0 0 0 0 0 -0 -0 -0 -0 0 0 0 0 0 0 0 0 0 0 0 0 -0 -0 -0 -0 0 0
0 0 0 0 0 0 0 0 0 0 0 0 0 0 -0 0 -0 0 -0 -0 0 0 0 0 0 0 0 0 0 -0 0 0 0 0 -0 -0 -0 -0
0 0 0 0 0 0 0 0 0 0 0 0 0 0 -0 0 -0 0 -0 0 -0 -0 0 0 0 0 0 0 0 0 0 0 0 0 -0 -0 -0 -0
0 0 0 0 0 0 0 0 0 0 0 0 0 0 0 0 -0 0 0 -0 -0 0 0 0 0 0 0 0 0 0 0 0 0 0 0 0 -0 -0
0 0 0 0 0 0 0 0 0 0 0 0 0 0 0 0 -0 0 0 0 0 0 0 0 0 0 0 0 0 0 0 0 0 0 0 0 0 0
0 0 0 0 0 0 0 0 0 0 0 0 0 0 0 0 0 0 0 0 0 0 0 0 0 0 0 0 0 0 0 0 0 0 0 0 0 0
0 0 0 0 0 0 0 0 0 0 0 0 0 0 0 0 0 0 0 0 0 0 0 0 0 0 0 0 0 0 0 0 0 0 0 0 0 0
0 0 0 0 0 0 0 0 0 0 0 0 0 0 0 0 0 0 0 0 0 0 0 0 0 0 0 0 0 0 0 0 0 0 0 0 0 0
0 0 0 0 0 0 0 0 0 -0 -0 -0 0 0 0 0 0 0 0 0 0 0 0 0 0 0 0 0 0 0 0 0 0 0 0 0 0 0
0 0 0 0 0 0 0 0 0 -0 -0 -0 -0 0 0 0 0 0 0 0 0 0 0 0 0 0 0 0 0 0 0 -0 -0 0 0 0 0 0
0 0 0 0 0 0 0 0 0 0 -0 -0 0 0 0 0 0 0 0 0 0 0 0 0 0 0 0 0 0 0 0 0 -0 -0 -0 -0 0 0
0 0 0 0 0 0 0 0 0 0 0 0 0 0 0 0 0 0 0 0 0 0 0 0 0 0 0 0 0 0 0 0 0 -0 -0 -0 -0 -0
Wind_Speed_500mb
31 32 36 35 37 40 40 44 45 62 60 50 44 43 40 38 41 44 43 43 49 60 51 50 53 54 55 56 56 53 48 49 47 51 56 59 62 63
37 40 43 43 44 44 40 46 44 46 67 53 51 56 49 46 42 44 53 58 51 45 53 50 48 50 53 52 50 46 42 45 44 45 51 58 61 63
43 50 52 50 47 43 42 42 36 42 55 56 48 51 50 47 51 55 52 46 43 41 44 57 45 42 46 48 46 43 44 44 46 49 53 58 63 65
42 44 48 42 43 44 40 41 38 40 43 53 51 52 46 44 46 45 44 38 39 34 43 45 32 37 39 41 41 41 40 43 47 53 60 65 66 68
41 42 44 42 46 43 38 36 35 36 37 41 50 42 40 39 40 39 41 39 38 35 41 28 29 34 35 34 33 35 40 47 54 60 65 68 63 65
41 43 43 49 44 41 35 36 38 38 39 39 42 42 40 36 42 37 39 36 37 34 29 27 24 32 35 29 27 33 40 49 55 59 69 52 54 61
46 45 43 52 48 42 38 39 42 39 38 39 41 42 41 37 35 35 37 37 34 23 23 22 27 25 22 20 23 30 40 46 51 59 44 42 47 44
48 48 46 42 41 39 39 41 40 39 40 39 39 38 38 36 34 34 37 36 36 19 35 25 17 14 18 13 30 37 42 47 49 43 36 38 38 32
54 47 47 41 45 40 35 44 40 38 39 39 39 35 37 34 38 34 35 35 35 35 32 31 17 23 15 12 25 39 43 47 45 32 32 32 28 23
53 51 52 42 37 41 44 43 39 39 36 34 36 38 36 34 30 33 39 35 32 30 23 23 23 24 6 11 28 34 40 42 28 24 26 24 16 14
56 51 56 50 45 42 45 46 48 45 42 42 41 39 36 33 29 29 27 24 28 21 11 29 24 29 9 16 30 30 35 38 20 18 21 9 11 12
55 52 50 52 49 50 50 48 52 53 53 49 43 36 31 28 23 26 22 21 24 18 17 28 24 36 17 18 32 34 31 28 16 16 20 10 15 11
46 44 40 44 49 54 50 48 49 52 54 49 40 37 19 21 14 22 15 18 19 25 21 28 30 32 25 32 22 33 23 12 29 30 26 19 20 15
54 51 52 53 54 54 49 48 46 47 49 40 37 32 15 18 12 19 17 19 19 23 15 16 28 32 31 22 19 18 18 13 30 28 28 29 25 25
53 60 69 56 48 42 41 39 40 44 38 33 32 31 22 18 12 18 14 13 18 18 20 20 24 27 11 15 16 16 39 38 41 44 44 46 46 42
57 71 61 49 38 32 33 35 36 29 30 31 28 30 26 17 11 13 12 9 11 14 13 20 18 3 7 7 16 35 41 49 59 62 66 68 69 68
62 54 47 43 39 38 34 30 29 28 32 29 25 26 24 16 9 11 9 6 7 12 10 6 4 6 14 40 45 47 45 48 57 59 60 64 63 59
49 45 44 41 38 33 34 33 24 26 27 26 23 22 20 17 8 9 7 4 9 8 7 12 26 29 34 44 42 41 40 44 43 51 57 62 65 60
40 42 40 38 37 32 31 26 24 23 24 23 19 18 16 18 12 9 7 4 8 4 9 16 15 28 41 41 38 30 28 30 37 41 38 46 58 55
41 41 40 37 34 29 25 23 23 24 16 13 11 13 15 19 13 10 8 6 11 9 9 20 16 33 42 42 44 35 32 34 33 37 44 51 51 46
44 42 39 34 31 26 22 20 17 11 8 7 8 12 17 21 19 13 12 13 10 16 16 28 26 41 42 45 46 36 30 27 28 29 24 26 28 28
46 43 39 33 27 22 20 19 14 9 3 5 11 15 22 28 19 16 19 15 22 22 33 39 51 49 43 39 45 41 39 31 23 24 23 17 7 13
45 40 36 31 27 22 19 15 9 6 5 11 16 20 29 27 22 24 21 21 21 26 46 50 49 48 42 42 43 39 35 35 36 39 42 32 29 30
Wind_Direction_500mb
303 308 309 310 307 303 301 305 300 300 302 306 309 308 304 300 299 299 295 293 286 289 291 282 275 272 273 277 276 276 266 261 268 263 265 265 265 261
302 301 298 299 298 299 299 303 299 293 294 300 304 303 298 296 297 298 301 294 291 292 295 291 276 268 267 273 275 271 274 271 274 275 277 274 270 265
304 306 300 293 293 291 301 300 299 298 296 304 306 302 299 295 298 303 305 303 300 292 288 286 275 267 270 272 273 266 273 275 278 282 286 282 273 269
310 307 300 294 290 296 300 296 304 309 308 306 311 311 309 309 308 307 310 302 303 303 295 299 275 275 273 274 273 265 270 276 283 284 286 283 275 270
312 311 306 298 294 295 291 296 300 302 303 303 313 315 314 315 315 311 308 307 308 304 294 307 301 288 279 276 267 266 273 280 283 282 290 288 278 273
309 312 311 305 296 292 291 293 297 298 303 307 309 314 315 313 315 317 315 318 313 313 305 298 272 285 283 271 260 272 280 282 291 289 295 282 280 276
307 311 313 318 297 297 293 295 292 298 297 303 306 311 314 315 318 316 314 320 321 316 316 320 297 291 274 262 273 279 290 295 300 301 287 278 286 283
305 305 306 310 299 300 301 307 303 298 294 298 299 305 315 312 310 314 316 322 321 326 326 324 324 300 265 306 293 298 303 306 308 298 280 281 283 267
300 300 304 308 309 306 305 310 310 307 297 295 292 293 302 312 308 312 312 311 307 310 325 328 347 323 297 274 308 308 308 312 311 290 283 286 274 258
301 298 295 297 302 304 304 306 311 312 305 293 285 289 292 299 299 302 306 306 306 312 332 318 338 335 308 341 321 317 322 319 308 300 302 294 255 239
304 297 294 292 294 296 300 302 307 316 317 305 297 298 296 297 299 303 305 302 308 327 341 339 343 341 324 338 339 338 341 337 338 347 339 312 191 204
305 298 294 296 295 294 296 298 302 312 315 313 302 300 297 299 298 303 289 288 300 328 3 338 345 2 343 344 350 346 351 345 344 38 37 93 164 178
318 315 302 293 292 293 290 289 296 305 308 307 302 303 295 288 284 286 282 271 281 289 308 316 321 343 343 335 356 345 1 16 80 67 62 82 158 149
312 310 306 300 297 287 285 286 294 297 301 302 300 301 281 281 286 283 271 268 274 277 292 318 301 319 331 350 23 21 47 80 91 72 74 90 112 150
308 310 314 311 308 295 287 286 283 290 293 294 296 294 281 275 268 294 296 281 276 292 296 328 301 324 345 339 345 40 74 87 93 92 90 88 92 97
307 312 316 315 312 300 290 288 285 281 289 286 284 285 284 272 276 278 292 282 284 308 329 305 326 347 88 350 102 94 91 85 91 94 93 92 89 87
310 317 325 324 317 315 308 299 290 275 294 287 280 274 273 253 258 269 265 274 277 308 287 307 13 106 126 110 94 99 90 88 93 92 91 88 83 86
332 330 323 324 323 316 310 305 289 285 286 281 275 263 259 229 218 257 232 265 282 261 300 160 123 125 117 98 95 90 88 79 80 91 90 88 82 78
338 337 333 329 326 320 317 310 300 286 285 272 270 249 235 204 204 219 187 273 241 296 117 165 119 149 132 107 103 87 82 88 95 83 80 82 87 82
350 345 342 341 338 333 324 315 306 298 282 279 251 224 202 181 180 189 163 163 151 107 125 146 162 156 141 121 110 98 92 87 84 90 94 91 87 82
352 350 347 347 344 341 337 334 330 322 292 250 212 192 181 176 171 165 133 142 106 104 128 150 157 145 133 122 106 103 99 97 101 100 86 87 86 83
354 352 351 353 354 351 348 348 354 2 11 170 169 166 163 159 161 149 131 125 110 100 127 134 141 137 123 119 106 100 89 81 95 100 103 98 113 91
356 357 358 357 357 351 346 351 358 25 82 141 148 150 150 154 156 136 133 121 122 117 136 136 134 131 118 114 109 104 104 102 103 98 88 85 93 94
Wind_Speed_850mb
31 32 36 35 37 40 40 44 45 62 60 50 44 43 40 38 41 44 43 43 49 60 51 50 53 54 55 56 56 53 48 49 47 51 56 59 62 63
37 40 43 43 44 44 40 46 44 46 67 53 51 56 49 46 42 44 53 58 51 45 53 50 48 50 53 52 50 46 42 45 44 45 51 58 61 63
43 50 52 50 47 43 42 42 36 42 55 56 48 51 50 47 51 55 52 46 43 41 44 57 45 42 46 48 46 43 44 44 46 49 53 58 63 65
42 44 48 42 43 44 40 41 38 40 43 53 51 52 46 44 46 45 44 38 39 34 43 45 32 37 39 41 41 41 40 43 47 53 60 65 66 68
41 42 44 42 46 43 38 36 35 36 37 41 50 42 40 39 40 39 41 39 38 35 41 28 29 34 35 34 33 35 40 47 54 60 65 68 63 65
41 43 43 49 44 41 35 36 38 38 39 39 42 42 40 36 42 37 39 36 37 34 29 27 24 32 35 29 27 33 40 49 55 59 69 52 54 61
46 45 43 52 48 42 38 39 42 39 38 39 41 42 41 37 35 35 37 37 34 23 23 22 27 25 22 20 23 30 40 46 51 59 44 42 47 44
48 48 46 42 41 39 39 41 40 39 40 39 39 38 38 36 34 34 37 36 36 19 35 25 17 14 18 13 30 37 42 47 49 43 36 38 38 32
54 47 47 41 45 40 35 44 40 38 39 39 39 35 37 34 38 34 35 35 35 35 32 31 17 23 15 12 25 39 43 47 45 32 32 32 28 23
53 51 52 42 37 41 44 43 39 39 36 34 36 38 36 34 30 33 39 35 32 30 23 23 23 24 6 11 28 34 40 42 28 24 26 24 16 14
56 51 56 50 45 42 45 46 48 45 42 42 41 39 36 33 29 29 27 24 28 21 11 29 24 29 9 16 30 30 35 38 20 18 21 9 11 12
55 52 50 52 49 50 50 48 52 53 53 49 43 36 31 28 23 26 22 21 24 18 17 28 24 36 17 18 32 34 31 28 16 16 20 10 15 11
46 44 40 44 49 54 50 48 49 52 54 49 40 37 19 21 14 22 15 18 19 25 21 28 30 32 25 32 22 33 23 12 29 30 26 19 20 15
54 51 52 53 54 54 49 48 46 47 49 40 37 32 15 18 12 19 17 19 19 23 15 16 28 32 31 22 19 18 18 13 30 28 28 29 25 25
53 60 69 56 48 42 41 39 40 44 38 33 32 31 22 18 12 18 14 13 18 18 20 20 24 27 11 15 16 16 39 38 41 44 44 46 46 42
57 71 61 49 38 32 33 35 36 29 30 31 28 30 26 17 11 13 12 9 11 14 13 20 18 3 7 7 16 35 41 49 59 62 66 68 69 68
62 54 47 43 39 38 34 30 29 28 32 29 25 26 24 16 9 11 9 6 7 12 10 6 4 6 14 40 45 47 45 48 57 59 60 64 63 59
49 45 44 41 38 33 34 33 24 26 27 26 23 22 20 17 8 9 7 4 9 8 7 12 26 29 34 44 42 41 40 44 43 51 57 62 65 60
40 42 40 38 37 32 31 26 24 23 24 23 19 18 16 18 12 9 7 4 8 4 9 16 15 28 41 41 38 30 28 30 37 41 38 46 58 55
41 41 40 37 34 29 25 23 23 24 16 13 11 13 15 19 13 10 8 6 11 9 9 20 16 33 42 42 44 35 32 34 33 37 44 51 51 46
44 42 39 34 31 26 22 20 17 11 8 7 8 12 17 21 19 13 12 13 10 16 16 28 26 41 42 45 46 36 30 27 28 29 24 26 28 28
46 43 39 33 27 22 20 19 14 9 3 5 11 15 22 28 19 16 19 15 22 22 33 39 51 49 43 39 45 41 39 31 23 24 23 17 7 13
45 40 36 31 27 22 19 15 9 6 5 11 16 20 29 27 22 24 21 21 21 26 46 50 49 48 42 42 43 39 35 35 36 39 42 32 29 30
Wind_Direction_850mb
303 308 309 310 307 303 301 305 300 300 302 306 309 308 304 300 299 299 295 293 286 289 291 282 275 272 273 277 276 276 266 261 268 263 265 265 265 261
302 301 298 299 298 299 299 303 299 293 294 300 304 303 298 296 297 298 301 294 291 292 295 291 276 268 267 273 275 271 274 271 274 275 277 274 270 265
304 306 300 293 293 291 301 300 299 298 296 304 306 302 299 295 298 303 305 303 300 292 288 286 275 267 270 272 273 266 273 275 278 282 286 282 273 269
310 307 300 294 290 296 300 296 304 309 308 306 311 311 309 309 308 307 310 302 303 303 295 299 275 275 273 274 273 265 270 276 283 284 286 283 275 270
312 311 306 298 294 295 291 296 300 302 303 303 313 315 314 315 315 311 308 307 308 304 294 307 301 288 279 276 267 266 273 280 283 282 290 288 278 273
309 312 311 305 296 292 291 293 297 298 303 307 309 314 315 313 315 317 315 318 313 313 305 298 272 285 283 271 260 272 280 282 291 289 295 282 280 276
307 311 313 318 297 297 293 295 292 298 297 303 306 311 314 315 318 316 314 320 321 316 316 320 297 291 274 262 273 279 290 295 300 301 287 278 286 283
305 305 306 310 299 300 301 307 303 298 294 298 299 305 315 312 310 314 316 322 321 326 326 324 324 300 265 306 293 298 303 306 308 298 280 281 283 267
300 300 304 308 309 306 305 310 310 307 297 295 292 293 302 312 308 312 312 311 307 310 325 328 347 323 297 274 308 308 308 312 311 290 283 286 274 258
301 298 295 297 302 304 304 306 311 312 305 293 285 289 292 299 299 302 306 306 306 312 332 318 338 335 308 341 321 317 322 319 308 300 302 294 255 239
304 297 294 292 294 296 300 302 307 316 317 305 297 298 296 297 299 303 305 302 308 327 341 339 343 341 324 338 339 338 341 337 338 347 339 312 191 204
305 298 294 296 295 294 296 298 302 312 315 313 302 300 297 299 298 303 289 288 300 328 3 338 345 2 343 344 350 346 351 345 344 38 37 93 164 178
318 315 302 293 292 293 290 289 296 305 308 307 302 303 295 288 284 286 282 271 281 289 308 316 321 343 343 335 356 345 1 16 80 67 62 82 158 149
312 310 306 300 297 287 285 286 294 297 301 302 300 301 281 281 286 283 271 268 274 277 292 318 301 319 331 350 23 21 47 80 91 72 74 90 112 150
308 310 314 311 308 295 287 286 283 290 293 294 296 294 281 275 268 294 296 281 276 292 296 328 301 324 345 339 345 40 74 87 93 92 90 88 92 97
307 312 316 315 312 300 290 288 285 281 289 286 284 285 284 272 276 278 292 282 284 308 329 305 326 347 88 350 102 94 91 85 91 94 93 92 89 87
310 317 325 324 317 315 308 299 290 275 294 287 280 274 273 253 258 269 265 274 277 308 287 307 13 106 126 110 94 99 90 88 93 92 91 88 83 86
332 330 323 324 323 316 310 305 289 285 286 281 275 263 259 229 218 257 232 265 282 261 300 160 123 125 117 98 95 90 88 79 80 91 90 88 82 78
338 337 333 329 326 320 317 310 300 286 285 272 270 249 235 204 204 219 187 273 241 296 117 165 119 149 132 107 103 87 82 88 95 83 80 82 87 82
350 345 342 341 338 333 324 315 306 298 282 279 251 224 202 181 180 189 163 163 151 107 125 146 162 156 141 121 110 98 92 87 84 90 94 91 87 82
352 350 347 347 344 341 337 334 330 322 292 250 212 192 181 176 171 165 133 142 106 104 128 150 157 145 133 122 106 103 99 97 101 100 86 87 86 83
354 352 351 353 354 351 348 348 354 2 11 170 169 166 163 159 161 149 131 125 110 100 127 134 141 137 123 119 106 100 89 81 95 100 103 98 113 91
356 357 358 357 357 351 346 351 358 25 82 141 148 150 150 154 156 136 133 121 122 117 136 136 134 131 118 114 109 104 104 102 103 98 88 85 93 94